SES-21

Last updated on Sat Aug 15 2026 00:03:02 GMT+0000 (Coordinated Universal Time)

1 53961U 22123B 26226.47072898 .00000054 00000+0 00000+0 0 9994 2 53961 0.0255 45.9000 0001014 97.0965 218.3498 1.00271015 7793
UTC large
Height (km)
Speed (km/s)
/
Latitude / Longitude
Inclination (degrees)
Orbital Period (minutes)
Azimuth
Elevation
Range (km)
Doppler Factor

Next 0 passes for location: London (51.5072 / 0.1276)

No passes found over London.
SES-21